• In Lithuania
  • List of Countries
  • For 7 days
  • Water Temperature
  • Satellite Maps
  • Weather Map
  • Weather Widgets
  • user-avatar
    Login

    Hourly Weather Golubinyy

    Today, 24 October, Wednesday

    Time Temperature Precipitation Wind Pressure Humidity
    00:00 +14°C° 0 mm 1 mps 751 mmHg 65%
    01:00 +14°C° 0.1 mm 1 mps 751 mmHg 67%
    02:00 +14°C° 0.1 mm 1 mps 750 mmHg 68%
    03:00 +14°C° 0.1 mm 2 mps 750 mmHg 70%
    04:00 +14°C° 0.5 mm 2 mps 750 mmHg 74%
    05:00 +14°C° 0.5 mm 2 mps 749 mmHg 78%
    06:00 +14°C° 0.5 mm 2 mps 749 mmHg 82%
    07:00 +14°C° 1.3 mm 2 mps 748 mmHg 83%
    08:00 +14°C° 1.3 mm 3 mps 748 mmHg 83%
    09:00 +14°C° 1.3 mm 3 mps 748 mmHg 84%
    10:00 +15°C° 0 mm 4 mps 747 mmHg 76%
    11:00 +17°C° 0 mm 6 mps 746 mmHg 69%
    12:00 +18°C° 0 mm 7 mps 745 mmHg 61%
    13:00 +18°C° 0 mm 7 mps 744 mmHg 60%
    14:00 +20°C° 0 mm 7 mps 743 mmHg 59%
    15:00 +20°C° 0 mm 7 mps 742 mmHg 58%
    16:00 +20°C° 0 mm 7 mps 741 mmHg 62%
    17:00 +19°C° 0 mm 6 mps 741 mmHg 66%
    18:00 +19°C° 0 mm 6 mps 740 mmHg 69%
    19:00 +17°C° 0 mm 5 mps 740 mmHg 73%
    20:00 +18°C° 0 mm 4 mps 740 mmHg 76%
    21:00 +17°C° 0 mm 2 mps 739 mmHg 79%
    22:00 +17°C° 0.3 mm 2 mps 739 mmHg 80%
    23:00 +17°C° 0.3 mm 2 mps 739 mmHg 81%

    Tomorrow, 25 October, Thursday

    Time Temperature Precipitation Wind Pressure Humidity
    00:00 +17°C° 0.3 mm 2 mps 739 mmHg 82%
    01:00 +17°C° 0.2 mm 2 mps 738 mmHg 82%
    02:00 +16°C° 0.2 mm 2 mps 738 mmHg 83%
    03:00 +16°C° 0.2 mm 2 mps 738 mmHg 84%
    04:00 +16°C° 0 mm 2 mps 738 mmHg 86%
    05:00 +15°C° 0 mm 1 mps 737 mmHg 87%
    06:00 +15°C° 0 mm 1 mps 737 mmHg 88%
    07:00 +15°C° 0.5 mm 2 mps 737 mmHg 85%
    08:00 +14°C° 0.5 mm 3 mps 738 mmHg 83%
    09:00 +14°C° 0.5 mm 4 mps 738 mmHg 81%
    10:00 +14°C° 0.1 mm 5 mps 738 mmHg 79%
    11:00 +14°C° 0.1 mm 5 mps 738 mmHg 77%
    12:00 +15°C° 0.1 mm 5 mps 738 mmHg 75%
    13:00 +14°C° 0.1 mm 6 mps 739 mmHg 74%
    14:00 +14°C° 0.1 mm 7 mps 740 mmHg 73%
    15:00 +13°C° 0.1 mm 8 mps 740 mmHg 72%
    16:00 +12°C° 0 mm 8 mps 741 mmHg 70%
    17:00 +11°C° 0 mm 7 mps 742 mmHg 67%
    18:00 +10°C° 0 mm 7 mps 743 mmHg 64%
    19:00 +10°C° 0.1 mm 7 mps 743 mmHg 65%
    20:00 +10°C° 0.1 mm 6 mps 744 mmHg 65%
    21:00 +10°C° 0.1 mm 6 mps 745 mmHg 66%
    22:00 +10°C° 0.1 mm 5 mps 745 mmHg 66%
    23:00 +9°C° 0.1 mm 5 mps 745 mmHg 65%

    Day after tomorrow, 26 October, Friday

    Time Temperature Precipitation Wind Pressure Humidity
    00:00 +10°C° 0.1 mm 4 mps 746 mmHg 65%
    01:00 +10°C° 0 mm 4 mps 746 mmHg 66%
    02:00 +10°C° 0 mm 4 mps 746 mmHg 67%
    03:00 +8°C° 0 mm 4 mps 746 mmHg 68%
    04:00 +8°C° 0 mm 4 mps 747 mmHg 70%
    05:00 +8°C° 0 mm 4 mps 747 mmHg 72%
    06:00 +7°C° 0 mm 4 mps 748 mmHg 73%
    07:00 +8°C° 0 mm 5 mps 748 mmHg 70%
    08:00 +8°C° 0 mm 5 mps 749 mmHg 67%
    09:00 +9°C° 0 mm 6 mps 749 mmHg 64%
    10:00 +10°C° 0 mm 6 mps 749 mmHg 57%
    11:00 +11°C° 0 mm 7 mps 749 mmHg 51%
    12:00 +11°C° 0 mm 7 mps 750 mmHg 44%
    13:00 +13°C° 0 mm 6 mps 749 mmHg 41%
    14:00 +13°C° 0 mm 6 mps 749 mmHg 37%
    15:00 +13°C° 0 mm 5 mps 749 mmHg 34%
    16:00 +13°C° 0.1 mm 5 mps 749 mmHg 39%
    17:00 +12°C° 0.1 mm 4 mps 749 mmHg 45%
    18:00 +11°C° 0.1 mm 4 mps 749 mmHg 50%
    19:00 +10°C° 0.9 mm 5 mps 750 mmHg 58%
    20:00 +9°C° 0.9 mm 6 mps 750 mmHg 65%
    21:00 +9°C° 0.9 mm 7 mps 751 mmHg 73%
    22:00 +9°C° 0 mm 7 mps 752 mmHg 73%
    23:00 +8°C° 0 mm 7 mps 752 mmHg 73%

    27 October, Saturday

    Time Temperature Precipitation Wind Pressure Humidity
    00:00 +8°C° 0 mm 7 mps 753 mmHg 73%
    01:00 +8°C° 0 mm 6 mps 754 mmHg 74%
    02:00 +8°C° 0 mm 6 mps 754 mmHg 74%
    03:00 +7°C° 0 mm 6 mps 755 mmHg 74%
    04:00 +7°C° 0 mm 6 mps 755 mmHg 75%
    05:00 +7°C° 0 mm 5 mps 756 mmHg 75%
    06:00 +7°C° 0 mm 5 mps 757 mmHg 75%
    07:00 +8°C° 0 mm 5 mps 757 mmHg 70%
    08:00 +9°C° 0 mm 6 mps 758 mmHg 65%
    09:00 +10°C° 0 mm 6 mps 758 mmHg 60%
    10:00 +11°C° 0 mm 6 mps 758 mmHg 56%
    11:00 +13°C° 0 mm 6 mps 758 mmHg 51%
    12:00 +14°C° 0 mm 6 mps 759 mmHg 47%
    13:00 +14°C° 0 mm 5 mps 758 mmHg 46%
    14:00 +15°C° 0 mm 5 mps 758 mmHg 45%
    15:00 +15°C° 0 mm 4 mps 758 mmHg 44%
    16:00 +14°C° 0 mm 4 mps 758 mmHg 48%
    17:00 +13°C° 0 mm 3 mps 758 mmHg 52%
    18:00 +13°C° 0 mm 2 mps 758 mmHg 56%
    19:00 +12°C° 0 mm 3 mps 759 mmHg 57%
    20:00 +12°C° 0 mm 3 mps 759 mmHg 59%
    21:00 +12°C° 0 mm 4 mps 759 mmHg 60%
    22:00 +12°C° 0 mm 4 mps 759 mmHg 62%
    23:00 +11°C° 0 mm 4 mps 759 mmHg 63%

    28 October, Sunday

    Time Temperature Precipitation Wind Pressure Humidity
    00:00 +11°C° 0 mm 4 mps 759 mmHg 65%
    01:00 +11°C° 0 mm 4 mps 759 mmHg 65%
    02:00 +11°C° 0 mm 4 mps 759 mmHg 64%
    03:00 +10°C° 0 mm 4 mps 759 mmHg 64%
    04:00 +10°C° 0 mm 4 mps 759 mmHg 63%
    05:00 +10°C° 0 mm 4 mps 759 mmHg 62%
    06:00 +10°C° 0 mm 4 mps 760 mmHg 62%
    07:00 +12°C° 0 mm 4 mps 760 mmHg 57%
    08:00 +13°C° 0 mm 4 mps 760 mmHg 51%
    09:00 +14°C° 0 mm 4 mps 760 mmHg 46%
    10:00 +17°C° 0 mm 4 mps 760 mmHg 41%
    11:00 +19°C° 0 mm 3 mps 760 mmHg 36%
    12:00 +21°C° 0 mm 3 mps 760 mmHg 30%
    13:00 +21°C° 0 mm 3 mps 760 mmHg 30%
    14:00 +21°C° 0 mm 2 mps 760 mmHg 29%
    15:00 +23°C° 0 mm 2 mps 760 mmHg 28%
    16:00 +20°C° 0 mm 2 mps 760 mmHg 32%
    17:00 +19°C° 0 mm 2 mps 760 mmHg 36%
    18:00 +17°C° 0 mm 2 mps 760 mmHg 39%
    19:00 +17°C° 0 mm 2 mps 761 mmHg 41%
    20:00 +16°C° 0 mm 2 mps 761 mmHg 42%
    21:00 +15°C° 0 mm 2 mps 761 mmHg 44%
    22:00 +15°C° 0 mm 2 mps 761 mmHg 45%
    23:00 +15°C° 0 mm 2 mps 761 mmHg 46%

    29 October, Monday

    Time Temperature Precipitation Wind Pressure Humidity
    00:00 +14°C° 0 mm 2 mps 761 mmHg 47%
    01:00 +14°C° 0 mm 2 mps 761 mmHg 48%
    02:00 +13°C° 0 mm 2 mps 761 mmHg 49%
    03:00 +13°C° 0 mm 1 mps 761 mmHg 50%
    04:00 +13°C° 0 mm 2 mps 761 mmHg 50%
    05:00 +13°C° 0 mm 2 mps 761 mmHg 51%
    06:00 +13°C° 0 mm 2 mps 761 mmHg 51%
    07:00 +14°C° 0 mm 2 mps 761 mmHg 49%
    08:00 +15°C° 0 mm 2 mps 761 mmHg 48%
    09:00 +16°C° 0 mm 3 mps 762 mmHg 46%
    10:00 +18°C° 0 mm 3 mps 761 mmHg 44%
    11:00 +19°C° 0 mm 4 mps 761 mmHg 42%
    12:00 +21°C° 0 mm 4 mps 761 mmHg 40%
    13:00 +21°C° 0 mm 4 mps 760 mmHg 40%
    14:00 +21°C° 0 mm 4 mps 760 mmHg 39%
    15:00 +22°C° 0 mm 4 mps 760 mmHg 39%
    16:00 +20°C° 0 mm 4 mps 760 mmHg 45%
    17:00 +19°C° 0 mm 4 mps 760 mmHg 50%
    18:00 +17°C° 0 mm 4 mps 760 mmHg 56%
    19:00 +17°C° 0 mm 4 mps 760 mmHg 61%
    20:00 +15°C° 0 mm 4 mps 760 mmHg 66%
    21:00 +14°C° 0 mm 4 mps 760 mmHg 72%
    22:00 +14°C° 0 mm 4 mps 759 mmHg 77%
    23:00 +13°C° 0 mm 3 mps 759 mmHg 82%

    30 October, Tuesday

    Time Temperature Precipitation Wind Pressure Humidity
    00:00 +12°C° 0 mm 3 mps 759 mmHg 87%
    01:00 +12°C° 0 mm 3 mps 759 mmHg 88%
    02:00 +12°C° 0 mm 3 mps 759 mmHg 89%
    03:00 +11°C° 0 mm 3 mps 759 mmHg 90%
    04:00 +11°C° 0 mm 3 mps 759 mmHg 91%
    05:00 +11°C° 0 mm 3 mps 759 mmHg 93%
    06:00 +11°C° 0 mm 3 mps 758 mmHg 94%
    07:00 +12°C° 0 mm 4 mps 758 mmHg 91%
    08:00 +13°C° 0 mm 4 mps 759 mmHg 88%
    09:00 +14°C° 0 mm 5 mps 759 mmHg 85%
    10:00 +15°C° 0 mm 5 mps 758 mmHg 78%
    11:00 +17°C° 0 mm 4 mps 758 mmHg 72%
    12:00 +19°C° 0 mm 4 mps 758 mmHg 65%
    13:00 +19°C° 0 mm 4 mps 758 mmHg 61%
    14:00 +20°C° 0 mm 4 mps 758 mmHg 58%
    15:00 +20°C° 0 mm 4 mps 757 mmHg 55%
    16:00 +19°C° 0 mm 3 mps 757 mmHg 60%
    17:00 +18°C° 0 mm 3 mps 757 mmHg 66%
    18:00 +17°C° 0 mm 2 mps 757 mmHg 71%
    19:00 +16°C° 0 mm 2 mps 757 mmHg 74%
    20:00 +15°C° 0 mm 2 mps 757 mmHg 77%
    21:00 +15°C° 0 mm 2 mps 757 mmHg 80%
    22:00 +14°C° 0 mm 2 mps 757 mmHg 82%
    23:00 +14°C° 0 mm 2 mps 757 mmHg 85%
    Show more